World > North America > United States > Missouri > Wardsville

Wardsville, MO Hourly Weather Conditions

Feedback E-mail the Weather

Quick WX

Wardsville, MO Weather Maps

°F °C°F °C
Wardsville Weather Map
UTC Time: 12/7/2022, 04:26
Your Time:

Wardsville, MO Regional Weather

Expires:202212070500;;431050
ASUS43 KEAX 070415
RWREAX

WEATHER ROUNDUP FOR EASTERN KANSAS AND NORTHWEST MISSOURI
NATIONAL WEATHER SERVICE KANSAS CITY/PLEASANT HILL MO
1000 PM CST TUE DEC 06 2022


MOZ041-047>049-056>058-063>065-088>090-097-070500-
...EASTERN AND SOUTHERN MISSOURI...
  
CITY           SKY/WX    TMP DP  RH WIND       PRES   REMARKS
ST. LOUIS INTL DRZL/FOG  47  45  93 N3        30.05R VSB 1            
SPIRIT OF STL  CLOUDY    46  45  96 CALM      30.04S FOG              
COLUMBIA       FOG       45  43  93 CALM      30.06R VSB 1            
JEFFERSON CITY CLOUDY    47  44  90 NW3       30.07R FOG              
MEXICO         CLOUDY    43  43 100 CALM      30.06R FOG              
HANNIBAL       CLOUDY    45  39  81 CALM      30.08R                  
ROLLA          FOG       44  44 100 NW3       30.05R VSB 1/4          
LEBANON        FOG       45  43  93 W6        30.07R VSB 3/4          
OSAGE BEACH    FOG       43  43 100 CALM        N/A  VSB 3/4          
SPRINGFIELD    CLOUDY    43  43 100 NW6       30.06R FOG              
BRANSON        CLOUDY    50  50 100 NW3       30.06R                  
JOPLIN         FOG       44  43  96 CALM      30.08S VSB 1/2          
WEST PLAINS    CLOUDY    54  52  93 NW6       30.04R FOG              
SIKESTON       FOG       54  54 100 N3        30.02R VSB 1/4          

$$


SKY/WX - Weather  TMP - Temperature  DP - Dew Point  RH - Humidity
WIND - Wind Direction/Speed PRES - Barometric Pressure VSB - Visibility
WCI - Wind Chill Index E13G22 Wind - East Wind 13 mph/Gusts of 22 mph

Trending Headlines

Trending Entertainment Headlines

Wardsville Radar Loop

Use the map search tool if you want to place a location marker on the radar map...

Wardsville Quick Facts

National Two Day Weather Forecast


E-mail the Wardsville Weather Forecast

Voice your opinion or tell us about page issues...